Location: Hollin Hills
(38.7573°N, 77.0661°W)
Time: 12:15:29
(UTC+00:00)

ISS - Pass Details

Date: 22 April 2026
Orbit: 414 x 424 km, 51.6° (Epoch: 11 May)

Event Time Altitude Azimuth Distance (km) Brightness Sun altitude
Exits shadow 09:41:28 - 285° (WNW) 1,772 -1.1 -8.3°
Reaches altitude 10° 09:42:23 10° 295° (WNW) 1,498 -1.3 -8.1°
Maximum altitude 09:44:42 17° 338° (NNW) 1,140 -1.5 -7.7°
Drops below altitude 10° 09:47:01 10° 22° (NNE) 1,506 -0.2 -7.3°
Sets 09:49:39 0° 43° (NE) 2,375 1.4 -6.8°
